ATLAS 5 CENTAUR DEB, 44040

Orbit data source: Space-Track

ATLAS 5 CENTAUR DEB, 44040 is space debris in HEO originally from a launch on Wed, 17 Sep 2014 UTC launched from the Air Force Eastern Test Range (AFETR). Debris objects in space refer to the collection of defunct objects orbiting the Earth. Examples of debris include non-operational satellites, rocket bodies, and fragments generated from explosions, collisions, or faulty payload assembly.

Loading next visibility...
Identifier
44040, 2014-055CA
Orbit
HEO
Country
Flag of USUS
Related business
Flag of USUnited Launch Alliance/Lockheed Martin (US)
Manufacturer
Unknown
Mission
Spacecraft
Bus & Motor
Unknown
Mass
Unknown
Launch date (UTC)
2014-09-17 (11 years ago)
Launch vehicle
Unknown
Launch site
Air Force Eastern Test Range (AFETR)
Object type
Payload
Rocket body
Debris
Shape & HBR
Unknown shape, 1.1 m
Radar Cross Section
Small (<0.1 m²)

Expand to show TLE details & history
Last TLE update: 2 days ago

TLE from 2 days ago
0 ATLAS 5 CENTAUR DEB
1 44040U 14055CA  25347.13497449 -.00000018  00000-0  00000-0 0  9999
2 44040  20.0408 153.3618 4821833 148.8921 251.8305  1.88073747 48356
Epoch: 2025-12-13T03:14Z
TLE epoch observation values (Epoch: 2025-12-13T03:14:21.795Z)
Latitude
-0.00004°
Longitude
22.71746°
Altitude
29,829.79 km
Speed
2.764 km/s
True Right ascension
10h 13m 29s
True Declination
0° 00' 00"
Sunlit
Object was in daylight at epoch
Visualization orbit readout
Latitude
Unknown
Longitude
Unknown
Altitude
Unknown
Speed
Unknown
Apparent Right ascension
Unknown
Apparent Declination
Unknown
Sunlit
N/A
Visualization observer readout
Local Sidereal Time
12:48:00
Azimuth
Unknown
Elevation
Unknown
Doppler factor
Unknown
Orbital elements
Apogee altitude
34,716.24 km
Perigee altitude
7,978.626 km
Semi-major axis
27,725.57 km
Eccentricity
0.48218
Inclination
20.0408°
RAAN
153.3618°
Arg. of periapsis
148.8921°
True anomaly
211.15983°
Mean anomaly
251.8305°
Eccentric anomaly
230.50978°
Mean motion
0.47013 °/min
Orbital period
765.74 mins
BSTAR
0
Loading maneuver chart data...
Computing Atmospheric mass density...

Documentation

Showing up to 5 results
|